TimePDT,TemperatureF,Dew PointF,Humidity,Sea Level PressureIn,VisibilityMPH,Wind Direction,Wind SpeedMPH,Gust SpeedMPH,PrecipitationIn,Events,Conditions,WindDirDegrees,DateUTC
12:00 AM,48.2,34.2,58,30.20,-9999.0,NE,2.3,-,N/A,,Unknown,50,2013-03-30 07:00:00
1:00 AM,47.5,33.8,59,30.22,-9999.0,NNE,3.5,-,N/A,,Unknown,20,2013-03-30 08:00:00
2:00 AM,43.5,34.5,71,30.25,-9999.0,Calm,Calm,-,N/A,,Unknown,0,2013-03-30 09:00:00
3:00 AM,39.4,31.6,74,30.26,-9999.0,Calm,Calm,-,N/A,,Unknown,0,2013-03-30 10:00:00
4:00 AM,37.0,30.9,79,30.27,-9999.0,SE,1.2,-,N/A,,Unknown,140,2013-03-30 11:00:00
5:00 AM,36,32,80,30.28,,ENE,1.2,,,,,70,2013-03-30 12:00:00
5:00 AM,35.6,32.0,87,30.28,-9999.0,ENE,1.2,-,N/A,,Unknown,70,2013-03-30 12:00:00
6:00 AM,35.1,31.6,87,30.30,-9999.0,SE,1.2,-,N/A,,Unknown,130,2013-03-30 13:00:00
7:00 AM,33.4,30.6,89,30.31,-9999.0,NNE,2.3,-,N/A,,Unknown,20,2013-03-30 14:00:00
8:00 AM,38.7,36.0,90,30.32,-9999.0,NE,2.3,-,N/A,,Unknown,40,2013-03-30 15:00:00
9:00 AM,44.6,31.3,60,30.32,-9999.0,NNW,3.5,-,N/A,,Unknown,330,2013-03-30 16:00:00
10:00 AM,49.8,31.1,49,30.30,-9999.0,NW,2.3,-,N/A,,Unknown,320,2013-03-30 17:00:00
11:00 AM,54,31,29,30.29,,SW,2.3,,,,,220,2013-03-30 18:00:00
11:00 AM,54.1,30.7,41,30.29,-9999.0,SW,2.3,-,N/A,,Unknown,220,2013-03-30 18:00:00
12:00 PM,58.6,31.8,36,30.27,-9999.0,WNW,1.2,-,N/A,,Unknown,290,2013-03-30 19:00:00
1:00 PM,61.2,30.9,32,30.24,-9999.0,West,2.3,-,N/A,,Unknown,280,2013-03-30 20:00:00
2:00 PM,65.7,33.6,30,30.22,-9999.0,SW,2.3,-,N/A,,Unknown,230,2013-03-30 21:00:00
4:00 PM,68.9,27.5,21,30.15,-9999.0,South,3.5,-,N/A,,Unknown,180,2013-03-30 23:00:00
5:00 PM,69,27,11,30.13,,South,4.6,,,,,170,2013-03-31 00:00:00
5:00 PM,68.9,27.0,21,30.13,-9999.0,South,4.6,-,N/A,,Unknown,170,2013-03-31 00:00:00
6:00 PM,67.8,28.6,23,30.11,-9999.0,South,4.6,-,N/A,,Unknown,170,2013-03-31 01:00:00
7:00 PM,64.8,26.2,23,30.10,-9999.0,SE,3.5,-,N/A,,Unknown,130,2013-03-31 02:00:00
8:00 PM,60.6,28.2,29,30.10,-9999.0,ESE,3.5,-,N/A,,Unknown,110,2013-03-31 03:00:00
9:00 PM,57.2,33.8,41,30.11,-9999.0,SW,3.5,-,N/A,,Unknown,230,2013-03-31 04:00:00
10:00 PM,49.8,33.6,54,30.12,-9999.0,NNE,2.3,-,N/A,,Unknown,30,2013-03-31 05:00:00
11:00 PM,46,33,48,30.13,,NNE,3.5,,,,,30,2013-03-31 06:00:00
11:00 PM,45.9,31.5,57,30.13,-9999.0,NNE,3.5,-,N/A,,Unknown,30,2013-03-31 06:00:00